| time (UTC) | temp F | wind direction | speed MPH | gust MPH | rain 1hr in | rain 24hr in | rain mn in | humidity % | barometer mb |
| 20260506204002 | 58 | 239 | 2.0 | 4.0 | 0.04 | 0.09 | 0.09 | 100 | 1006.2 |
| 20260506203502 | 58 | 248 | 1.0 | 8.0 | 0.04 | 0.09 | 0.09 | 100 | 1006.2 |
| 20260506203002 | 58 | 243 | 2.0 | 8.0 | 0.03 | 0.08 | 0.08 | 99 | 1006.2 |
| 20260506202504 | 58 | 237 | 3.0 | 8.0 | 0.03 | 0.08 | 0.08 | 99 | 1006.1 |
| 20260506201502 | 58 | 221 | 2.0 | 4.0 | 0.02 | 0.07 | 0.07 | 99 | 1006.1 |
| 20260506201002 | 58 | 238 | 2.0 | 4.0 | 0.02 | 0.07 | 0.07 | 99 | 1006.2 |
| 20260506200504 | 58 | 57 | 2.0 | 4.0 | 0.02 | 0.07 | 0.07 | 99 | 1006.2 |
| 20260506200001 | 58 | 238 | 2.0 | 5.0 | 0.01 | 0.06 | 0.06 | 99 | 1006.3 |
| 20260506195501 | 58 | 243 | 2.0 | 5.0 | 0.01 | 0.06 | 0.06 | 99 | 1006.3 |
| 20260506195002 | 58 | 238 | 2.0 | 5.0 | 0.01 | 0.06 | 0.06 | 99 | 1006.3 |
| 20260506194001 | 58 | 255 | 2.0 | 9.0 | 0.00 | 0.05 | 0.05 | 99 | 1006.3 |
| 20260506193502 | 58 | 233 | 1.0 | 6.0 | 0.00 | 0.05 | 0.05 | 99 | 1006.5 |
| 20260506193001 | 58 | 271 | 2.0 | 6.0 | 0.00 | 0.05 | 0.05 | 99 | 1006.4 |
| 20260506192502 | 58 | 216 | 3.0 | 6.0 | 0.00 | 0.05 | 0.05 | 99 | 1006.4 |
| 20260506191502 | 58 | 231 | 3.0 | 6.0 | 0.01 | 0.05 | 0.05 | 98 | 1006.6 |
| 20260506191001 | 58 | 293 | 2.0 | 6.0 | 0.01 | 0.05 | 0.05 | 98 | 1006.6 |
| 20260506190501 | 57 | 274 | 4.0 | 11.0 | 0.01 | 0.05 | 0.05 | 98 | 1006.6 |
| 20260506190001 | 58 | 272 | 1.0 | 11.0 | 0.02 | 0.05 | 0.05 | 98 | 1006.7 |
| 20260506185501 | 57 | 250 | 3.0 | 8.0 | 0.02 | 0.05 | 0.05 | 98 | 1006.7 |
| 20260506185001 | 57 | 313 | 2.0 | 10.0 | 0.02 | 0.05 | 0.05 | 98 | 1006.8 |
| 20260506184501 | 57 | 261 | 3.0 | 10.0 | 0.02 | 0.05 | 0.05 | 98 | 1006.8 |
| 20260506184002 | 57 | 210 | 3.0 | 11.0 | 0.03 | 0.05 | 0.05 | 98 | 1006.8 |
| 20260506183503 | 58 | 216 | 3.0 | 14.0 | 0.03 | 0.05 | 0.05 | 98 | 1006.8 |
| 20260506183001 | 58 | 197 | 5.0 | 14.0 | 0.04 | 0.05 | 0.05 | 97 | 1006.8 |
| 20260506182001 | 58 | 304 | 4.0 | 11.0 | 0.04 | 0.04 | 0.04 | 97 | 1006.9 |
| 20260506181502 | 58 | 238 | 2.0 | 6.0 | 0.04 | 0.04 | 0.04 | 97 | 1006.9 |
| 20260506181000 | 58 | 217 | 2.0 | 9.0 | 0.04 | 0.04 | 0.04 | 96 | 1006.8 |
| 20260506180501 | 58 | 212 | 3.0 | 9.0 | 0.04 | 0.04 | 0.04 | 96 | 1006.9 |
| 20260506180006 | 58 | 205 | 2.0 | 9.0 | 0.03 | 0.03 | 0.03 | 96 | 1007.0 |
| 20260506175004 | 58 | 282 | 3.0 | 8.0 | 0.03 | 0.03 | 0.03 | 95 | 1006.9 |
| 20260506174502 | 58 | 210 | 3.0 | 6.0 | 0.03 | 0.03 | 0.03 | 94 | 1007.1 |
| 20260506174002 | 59 | 253 | 3.0 | 6.0 | 0.02 | 0.02 | 0.02 | 94 | 1007.0 |
| 20260506173501 | 59 | 342 | 2.0 | 5.0 | 0.02 | 0.02 | 0.02 | 94 | 1007.2 |
| 20260506173004 | 59 | 241 | 3.0 | 5.0 | 0.01 | 0.01 | 0.01 | 93 | 1007.5 |
| 20260506172503 | 60 | 300 | 2.0 | 7.0 | 0.01 | 0.01 | 0.01 | 92 | 1007.3 |
| 20260506172001 | 60 | 290 | 3.0 | 7.0 | 0.00 | 0.00 | 0.00 | 89 | 1007.5 |
| 20260506171504 | 60 | 237 | 2.0 | 5.0 | 0.00 | 0.00 | 0.00 | 89 | 1007.8 |
| 20260506171002 | 61 | 274 | 2.0 | 6.0 | 0.00 | 0.00 | 0.00 | 87 | 1008.0 |
| 20260506170502 | 61 | 191 | 3.0 | 8.0 | 0.00 | 0.00 | 0.00 | 84 | 1008.0 |
| 20260506165002 | 63 | 214 | 3.0 | 9.0 | 0.00 | 0.00 | 0.00 | 78 | 1008.1 |
| 20260506164501 | 64 | 253 | 2.0 | 11.0 | 0.00 | 0.00 | 0.00 | 78 | 1008.0 |
| 20260506164002 | 64 | 257 | 3.0 | 11.0 | 0.00 | 0.00 | 0.00 | 77 | 1008.0 |
| 20260506163501 | 65 | 264 | 3.0 | 9.0 | 0.00 | 0.00 | 0.00 | 74 | 1007.9 |
| 20260506163001 | 65 | 256 | 3.0 | 9.0 | 0.00 | 0.00 | 0.00 | 74 | 1008.0 |
| 20260506162502 | 64 | 243 | 4.0 | 9.0 | 0.00 | 0.00 | 0.00 | 73 | 1007.8 |
| 20260506162001 | 65 | 266 | 4.0 | 7.0 | 0.00 | 0.00 | 0.00 | 74 | 1007.9 |
| 20260506161500 | 66 | 237 | 3.0 | 6.0 | 0.00 | 0.00 | 0.00 | 71 | 1007.9 |
| 20260506161001 | 66 | 216 | 3.0 | 6.0 | 0.00 | 0.00 | 0.00 | 70 | 1007.8 |
| 20260506160501 | 66 | 283 | 3.0 | 7.0 | 0.00 | 0.00 | 0.00 | 68 | 1007.9 |
| 20260506160001 | 67 | 259 | 2.0 | 9.0 | 0.00 | 0.00 | 0.00 | 70 | 1007.9 |
| 20260506155001 | 67 | 224 | 3.0 | 10.0 | 0.00 | 0.00 | 0.00 | 69 | 1008.3 |
| 20260506154500 | 66 | 295 | 4.0 | 9.0 | 0.00 | 0.00 | 0.00 | 69 | 1008.4 |
| 20260506154001 | 66 | 209 | 3.0 | 8.0 | 0.00 | 0.00 | 0.00 | 69 | 1008.5 |
| 20260506153501 | 66 | 290 | 4.0 | 10.0 | 0.00 | 0.00 | 0.00 | 68 | 1008.3 |
| 20260506153002 | 67 | 252 | 5.0 | 10.0 | 0.00 | 0.00 | 0.00 | 67 | 1008.3 |
| 20260506152501 | 67 | 278 | 3.0 | 10.0 | 0.00 | 0.00 | 0.00 | 68 | 1008.3 |
| 20260506152001 | 67 | 274 | 4.0 | 10.0 | 0.00 | 0.00 | 0.00 | 69 | 1008.3 |
| 20260506151503 | 67 | 120 | 2.0 | 6.0 | 0.00 | 0.00 | 0.00 | 72 | 1008.4 |
| 20260506151002 | 66 | 247 | 3.0 | 6.0 | 0.00 | 0.00 | 0.00 | 71 | 1008.4 |
| 20260506150502 | 66 | 253 | 3.0 | 8.0 | 0.00 | 0.00 | 0.00 | 71 | 1008.4 |
| 20260506150004 | 66 | 287 | 2.0 | 8.0 | 0.00 | 0.00 | 0.00 | 73 | 1008.4 |
| 20260506145502 | 66 | 234 | 3.0 | 8.0 | 0.00 | 0.00 | 0.00 | 72 | 1008.4 |
| 20260506145002 | 65 | 243 | 3.0 | 7.0 | 0.00 | 0.00 | 0.00 | 73 | 1008.4 |
| 20260506144501 | 65 | 314 | 3.0 | 7.0 | 0.00 | 0.00 | 0.00 | 73 | 1008.4 |
| 20260506144004 | 65 | 322 | 4.0 | 6.0 | 0.00 | 0.00 | 0.00 | 74 | 1008.5 |
| 20260506143501 | 65 | 231 | 3.0 | 7.0 | 0.00 | 0.00 | 0.00 | 73 | 1008.7 |
| 20260506143003 | 64 | 271 | 2.0 | 7.0 | 0.00 | 0.00 | 0.00 | 74 | 1008.7 |
| 20260506142503 | 64 | 276 | 3.0 | 8.0 | 0.00 | 0.00 | 0.00 | 73 | 1008.7 |
| 20260506142002 | 64 | 298 | 4.0 | 8.0 | 0.00 | 0.00 | 0.00 | 74 | 1008.7 |
| 20260506141502 | 65 | 245 | 3.0 | 7.0 | 0.00 | 0.00 | 0.00 | 75 | 1008.6 |
| 20260506141003 | 64 | 250 | 2.0 | 8.0 | 0.00 | 0.00 | 0.00 | 77 | 1008.4 |
| 20260506140502 | 64 | 289 | 3.0 | 8.0 | 0.00 | 0.00 | 0.00 | 77 | 1008.5 |
| 20260506140001 | 63 | 228 | 4.0 | 8.0 | 0.00 | 0.00 | 0.00 | 78 | 1008.6 |
| 20260506135501 | 63 | 243 | 4.0 | 8.0 | 0.00 | 0.00 | 0.00 | 78 | 1008.6 |
| 20260506135001 | 63 | 264 | 3.0 | 11.0 | 0.00 | 0.00 | 0.00 | 79 | 1008.8 |
| 20260506134501 | 62 | 226 | 3.0 | 11.0 | 0.00 | 0.00 | 0.00 | 79 | 1008.7 |
| 20260506134000 | 62 | 276 | 2.0 | 6.0 | 0.00 | 0.00 | 0.00 | 81 | 1008.7 |
| 20260506133501 | 62 | 224 | 1.0 | 7.0 | 0.00 | 0.00 | 0.00 | 81 | 1008.7 |
| 20260506132502 | 61 | 226 | 4.0 | 7.0 | 0.00 | 0.00 | 0.00 | 80 | 1008.5 |
| 20260506132002 | 61 | 244 | 2.0 | 7.0 | 0.00 | 0.00 | 0.00 | 82 | 1008.5 |
| 20260506131501 | 61 | 282 | 3.0 | 7.0 | 0.00 | 0.00 | 0.00 | 83 | 1008.7 |
| 20260506131000 | 60 | 247 | 2.0 | 6.0 | 0.00 | 0.00 | 0.00 | 84 | 1008.8 |
| 20260506130502 | 60 | 241 | 2.0 | 6.0 | 0.00 | 0.00 | 0.00 | 84 | 1008.8 |
| 20260506125502 | 59 | 281 | 3.0 | 8.0 | 0.00 | 0.00 | 0.00 | 85 | 1008.8 |
| 20260506125001 | 59 | 212 | 3.0 | 8.0 | 0.00 | 0.00 | 0.00 | 85 | 1008.7 |
| 20260506124502 | 59 | 282 | 4.0 | 8.0 | 0.00 | 0.00 | 0.00 | 85 | 1008.9 |
| 20260506124003 | 59 | 264 | 1.0 | 6.0 | 0.00 | 0.00 | 0.00 | 85 | 1009.2 |
| 20260506123503 | 59 | 213 | 2.0 | 6.0 | 0.00 | 0.00 | 0.00 | 86 | 1009.3 |
| 20260506122002 | 58 | 296 | 2.0 | 7.0 | 0.00 | 0.00 | 0.00 | 87 | 1009.4 |
| 20260506121003 | 58 | 274 | 1.0 | 8.0 | 0.00 | 0.00 | 0.00 | 87 | 1009.3 |
| 20260506120501 | 58 | 245 | 2.0 | 8.0 | 0.00 | 0.00 | 0.00 | 88 | 1009.2 |
| 20260506120002 | 58 | 240 | 2.0 | 8.0 | 0.00 | 0.00 | 0.00 | 88 | 1009.2 |
| 20260506115501 | 58 | 266 | 2.0 | 5.0 | 0.00 | 0.00 | 0.00 | 88 | 1009.2 |
| 20260506115002 | 58 | 184 | 1.0 | 10.0 | 0.00 | 0.00 | 0.00 | 88 | 1009.3 |
| 20260506114500 | 57 | 259 | 3.0 | 10.0 | 0.00 | 0.00 | 0.00 | 88 | 1009.3 |
| 20260506114001 | 57 | 221 | 2.0 | 4.0 | 0.00 | 0.00 | 0.00 | 88 | 1009.3 |
| 20260506113502 | 57 | 233 | 1.0 | 4.0 | 0.00 | 0.00 | 0.00 | 88 | 1009.3 |
| 20260506113003 | 57 | 297 | 2.0 | 4.0 | 0.00 | 0.00 | 0.00 | 88 | 1009.3 |
| 20260506112500 | 57 | 279 | 1.0 | 5.0 | 0.00 | 0.00 | 0.00 | 89 | 1009.2 |
| 20260506112000 | 57 | 224 | 1.0 | 5.0 | 0.00 | 0.00 | 0.00 | 89 | 1009.1 |
| 20260506111502 | 57 | 280 | 2.0 | 5.0 | 0.00 | 0.00 | 0.00 | 89 | 1009.0 |
| 20260506111001 | 57 | 217 | 2.0 | 5.0 | 0.00 | 0.00 | 0.00 | 90 | 1009.1 |
| 20260506110501 | 56 | 227 | 2.0 | 5.0 | 0.00 | 0.00 | 0.00 | 90 | 1009.2 |
| 20260506110002 | 56 | 218 | 2.0 | 5.0 | 0.00 | 0.00 | 0.00 | 91 | 1009.3 |
| 20260506105501 | 56 | 238 | 1.0 | 5.0 | 0.00 | 0.00 | 0.00 | 92 | 1009.2 |
| 20260506105000 | 56 | 255 | 2.0 | 5.0 | 0.00 | 0.00 | 0.00 | 92 | 1009.3 |
| 20260506104501 | 55 | 288 | 1.0 | 5.0 | 0.00 | 0.00 | 0.00 | 92 | 1009.3 |
| 20260506104002 | 55 | 1 | 2.0 | 5.0 | 0.00 | 0.00 | 0.00 | 92 | 1009.1 |
| 20260506103502 | 55 | 224 | 1.0 | 4.0 | 0.00 | 0.00 | 0.00 | 92 | 1009.3 |
| 20260506103002 | 55 | 269 | 1.0 | 4.0 | 0.00 | 0.00 | 0.00 | 92 | 1009.3 |
| 20260506102502 | 55 | 258 | 1.0 | 4.0 | 0.00 | 0.00 | 0.00 | 93 | 1009.2 |
| 20260506102001 | 55 | 307 | 1.0 | 4.0 | 0.00 | 0.00 | 0.00 | 93 | 1009.1 |
| 20260506101001 | 55 | 245 | 2.0 | 5.0 | 0.00 | 0.00 | 0.00 | 93 | 1009.0 |
| 20260506100500 | 55 | 276 | 1.0 | 5.0 | 0.00 | 0.00 | 0.00 | 93 | 1009.1 |
| 20260506100004 | 55 | 248 | 1.0 | 4.0 | 0.00 | 0.00 | 0.00 | 93 | 1009.1 |
| 20260506095502 | 55 | 305 | 1.0 | 5.0 | 0.00 | 0.00 | 0.00 | 92 | 1009.1 |
| 20260506095000 | 55 | 262 | 1.0 | 5.0 | 0.00 | 0.00 | 0.00 | 92 | 1009.1 |
| 20260506094501 | 55 | 252 | 1.0 | 5.0 | 0.00 | 0.00 | 0.00 | 92 | 1009.1 |
| 20260506094002 | 55 | 242 | 2.0 | 4.0 | 0.00 | 0.00 | 0.00 | 91 | 1009.1 |
| 20260506093502 | 55 | 278 | 1.0 | 3.0 | 0.00 | 0.00 | 0.00 | 91 | 1009.0 |
| 20260506093001 | 55 | 286 | 1.0 | 4.0 | 0.00 | 0.00 | 0.00 | 91 | 1009.0 |
| 20260506092501 | 55 | 334 | 1.0 | 4.0 | 0.00 | 0.00 | 0.00 | 90 | 1009.1 |
| 20260506091501 | 55 | 276 | 2.0 | 7.0 | 0.00 | 0.00 | 0.00 | 91 | 1009.1 |
| 20260506091000 | 55 | 268 | 1.0 | 6.0 | 0.00 | 0.00 | 0.00 | 90 | 1009.1 |
| 20260506090501 | 55 | 278 | 1.0 | 6.0 | 0.00 | 0.00 | 0.00 | 90 | 1009.1 |
| 20260506090002 | 55 | 193 | 2.0 | 4.0 | 0.00 | 0.00 | 0.00 | 90 | 1009.1 |
| 20260506085502 | 55 | 255 | 2.0 | 6.0 | 0.00 | 0.00 | 0.00 | 89 | 1009.2 |
| 20260506085001 | 56 | 278 | 3.0 | 6.0 | 0.00 | 0.00 | 0.00 | 89 | 1009.1 |
| 20260506084502 | 55 | 259 | 1.0 | 7.0 | 0.00 | 0.00 | 0.00 | 89 | 1009.1 |
| 20260506084001 | 56 | 176 | 2.0 | 7.0 | 0.00 | 0.00 | 0.00 | 88 | 1009.1 |
| 20260506082500 | 56 | 245 | 1.0 | 6.0 | 0.00 | 0.00 | 0.00 | 88 | 1009.3 |
| 20260506082001 | 56 | 285 | 2.0 | 5.0 | 0.00 | 0.00 | 0.00 | 88 | 1009.3 |
| 20260506081001 | 56 | 249 | 2.0 | 4.0 | 0.00 | 0.00 | 0.00 | 87 | 1009.2 |
| 20260506080502 | 56 | 329 | 1.0 | 5.0 | 0.00 | 0.00 | 0.00 | 87 | 1009.2 |
| 20260506073502 | 56 | 222 | 1.0 | 7.0 | 0.00 | 0.00 | 0.00 | 86 | 1009.3 |
| 20260506072000 | 56 | 239 | 1.0 | 4.0 | 0.00 | 0.00 | 0.00 | 86 | 1009.4 |
| 20260506071002 | 57 | 205 | 1.0 | 3.0 | 0.00 | 0.00 | 0.00 | 85 | 1009.5 |
| 20260506070502 | 57 | 258 | 1.0 | 3.0 | 0.00 | 0.00 | 0.00 | 84 | 1009.5 |
| 20260506062000 | 58 | 238 | 1.0 | 4.0 | 0.00 | 0.00 | 0.00 | 80 | 1009.1 |
| 20260506061501 | 59 | 217 | 0.0 | 3.0 | 0.00 | 0.00 | 0.00 | 79 | 1009.2 |
| 20260506061000 | 59 | 267 | 0.0 | 7.0 | 0.00 | 0.00 | 0.00 | 78 | 1009.2 |
| 20260506060500 | 59 | 241 | 2.0 | 7.0 | 0.00 | 0.00 | 0.00 | 77 | 1009.0 |
| 20260506051001 | 60 | 262 | 1.0 | 5.0 | 0.00 | 0.00 | 0.00 | 72 | 1009.4 |
| 20260506050500 | 61 | 296 | 2.0 | 6.0 | 0.00 | 0.00 | 0.00 | 72 | 1009.4 |
| 20260506045001 | 61 | 271 | 1.0 | 4.0 | 0.00 | 0.00 | 0.00 | 71 | 1009.4 |
| 20260506044500 | 61 | 240 | 2.0 | 6.0 | 0.00 | 0.00 | 0.00 | 71 | 1009.5 |
| 20260506044000 | 61 | 266 | 2.0 | 6.0 | 0.00 | 0.00 | 0.00 | 71 | 1009.4 |
| 20260506043459 | 61 | 266 | 1.0 | 4.0 | 0.00 | 0.00 | 0.00 | 71 | 1009.4 |
| 20260506042959 | 61 | 294 | 2.0 | 7.0 | 0.00 | 0.00 | 0.00 | 71 | 1009.4 |
| 20260506042500 | 61 | 265 | 1.0 | 7.0 | 0.00 | 0.00 | 0.00 | 70 | 1009.3 |
| 20260506041959 | 61 | 233 | 2.0 | 6.0 | 0.00 | 0.00 | 0.00 | 66 | 1009.4 |
| 20260506041459 | 61 | 289 | 2.0 | 6.0 | 0.00 | 0.00 | 0.00 | 70 | 1009.4 |
| 20260506041000 | 61 | 271 | 2.0 | 5.0 | 0.00 | 0.00 | 0.00 | 70 | 1009.4 |
| 20260506040500 | 61 | 6 | 2.0 | 5.0 | 0.00 | 0.00 | 0.00 | 70 | 1009.4 |
| 20260506040002 | 61 | 276 | 2.0 | 5.0 | 0.00 | 0.00 | 0.00 | 71 | 1009.5 |
| 20260506035502 | 61 | 264 | 1.0 | 5.0 | 0.00 | 0.00 | 0.00 | 70 | 1009.5 |
| 20260506035002 | 61 | 245 | 1.0 | 4.0 | 0.00 | 0.00 | 0.00 | 70 | 1009.4 |
| 20260506034502 | 61 | 266 | 2.0 | 5.0 | 0.00 | 0.00 | 0.00 | 70 | 1009.4 |
| 20260506034003 | 61 | 231 | 2.0 | 5.0 | 0.00 | 0.00 | 0.00 | 70 | 1009.5 |
| 20260506033504 | 61 | 275 | 1.0 | 7.0 | 0.00 | 0.00 | 0.00 | 70 | 1009.5 |
| 20260506033004 | 61 | 303 | 1.0 | 7.0 | 0.00 | 0.00 | 0.00 | 69 | 1009.5 |
| 20260506032503 | 61 | 241 | 1.0 | 4.0 | 0.00 | 0.00 | 0.00 | 70 | 1009.4 |
| 20260506032002 | 61 | 234 | 2.0 | 5.0 | 0.00 | 0.00 | 0.00 | 70 | 1009.5 |
| 20260506031502 | 61 | 240 | 2.0 | 11.0 | 0.00 | 0.00 | 0.00 | 69 | 1009.5 |
| 20260506030503 | 61 | 265 | 2.0 | 6.0 | 0.00 | 0.00 | 0.00 | 69 | 1009.5 |
| 20260506030005 | 61 | 236 | 2.0 | 6.0 | 0.00 | 0.00 | 0.00 | 69 | 1009.5 |
| 20260506025502 | 61 | 235 | 1.0 | 6.0 | 0.00 | 0.00 | 0.00 | 68 | 1009.4 |
| 20260506025002 | 61 | 229 | 2.0 | 7.0 | 0.00 | 0.00 | 0.00 | 68 | 1009.4 |
| 20260506024502 | 61 | 235 | 2.0 | 7.0 | 0.00 | 0.00 | 0.00 | 68 | 1009.3 |
| 20260506024003 | 62 | 245 | 3.0 | 7.0 | 0.00 | 0.00 | 0.00 | 67 | 1009.3 |
| 20260506023003 | 62 | 259 | 3.0 | 7.0 | 0.00 | 0.00 | 0.00 | 67 | 1009.3 |
| 20260506022504 | 62 | 243 | 2.0 | 5.0 | 0.00 | 0.00 | 0.00 | 67 | 1009.3 |
| 20260506022004 | 62 | 265 | 2.0 | 6.0 | 0.00 | 0.00 | 0.00 | 67 | 1009.3 |
| 20260506021504 | 62 | 244 | 1.0 | 6.0 | 0.00 | 0.00 | 0.00 | 66 | 1009.2 |
| 20260506021004 | 62 | 265 | 2.0 | 5.0 | 0.00 | 0.00 | 0.00 | 66 | 1009.2 |
| 20260506020003 | 62 | 283 | 2.0 | 5.0 | 0.00 | 0.00 | 0.00 | 66 | 1009.4 |
| 20260506015503 | 62 | 286 | 1.0 | 5.0 | 0.00 | 0.00 | 0.00 | 65 | 1009.3 |
| 20260506015002 | 62 | 269 | 3.0 | 9.0 | 0.00 | 0.00 | 0.00 | 65 | 1009.3 |
| 20260506014502 | 62 | 219 | 3.0 | 9.0 | 0.00 | 0.00 | 0.00 | 65 | 1009.3 |
| 20260506014002 | 62 | 245 | 1.0 | 3.0 | 0.00 | 0.00 | 0.00 | 65 | 1009.2 |
| 20260506013502 | 63 | 162 | 0.0 | 6.0 | 0.00 | 0.00 | 0.00 | 65 | 1009.1 |
| 20260506013001 | 63 | 66 | 1.0 | 6.0 | 0.00 | 0.00 | 0.00 | 64 | 1009.1 |
| 20260506012502 | 63 | 246 | 0.0 | 6.0 | 0.00 | 0.00 | 0.00 | 64 | 1009.0 |
| 20260506012004 | 63 | 264 | 1.0 | 6.0 | 0.00 | 0.00 | 0.00 | 64 | 1009.0 |
| 20260506011502 | 63 | 247 | 2.0 | 6.0 | 0.00 | 0.00 | 0.00 | 63 | 1008.9 |
| 20260506011002 | 63 | 206 | 3.0 | 5.0 | 0.00 | 0.00 | 0.00 | 63 | 1008.8 |
| 20260506010502 | 63 | 220 | 1.0 | 5.0 | 0.00 | 0.00 | 0.00 | 63 | 1008.7 |
| 20260506010002 | 64 | 189 | 0.0 | 9.0 | 0.00 | 0.00 | 0.00 | 63 | 1008.8 |
| 20260506005504 | 64 | 262 | 1.0 | 9.0 | 0.00 | 0.00 | 0.00 | 61 | 1008.6 |
| 20260506005001 | 64 | 264 | 2.0 | 7.0 | 0.00 | 0.00 | 0.00 | 61 | 1008.6 |
| 20260506004502 | 64 | 210 | 1.0 | 5.0 | 0.00 | 0.00 | 0.00 | 62 | 1008.5 |
| 20260506004001 | 65 | 193 | 1.0 | 5.0 | 0.00 | 0.00 | 0.00 | 61 | 1008.5 |
| 20260506003003 | 65 | 251 | 1.0 | 6.0 | 0.00 | 0.00 | 0.00 | 61 | 1008.4 |
| 20260506002002 | 65 | 263 | 3.0 | 9.0 | 0.00 | 0.00 | 0.00 | 60 | 1008.3 |
| 20260506001502 | 65 | 238 | 2.0 | 9.0 | 0.00 | 0.00 | 0.00 | 61 | 1008.1 |
| 20260506001002 | 66 | 245 | 3.0 | 9.0 | 0.00 | 0.00 | 0.00 | 59 | 1008.1 |
| 20260506000502 | 66 | 284 | 4.0 | 8.0 | 0.00 | 0.00 | 0.00 | 60 | 1007.9 |
| 20260506000005 | 66 | 290 | 2.0 | 9.0 | 0.00 | 0.00 | 0.00 | 60 | 1007.9 |
| 20260505235503 | 66 | 228 | 4.0 | 9.0 | 0.00 | 0.00 | 0.00 | 59 | 1007.8 |
| 20260505235001 | 66 | 278 | 4.0 | 9.0 | 0.00 | 0.00 | 0.00 | 59 | 1007.8 |
| 20260505233503 | 67 | 266 | 3.0 | 8.0 | 0.00 | 0.00 | 0.00 | 58 | 1007.8 |
| 20260505232503 | 67 | 283 | 4.0 | 8.0 | 0.00 | 0.00 | 0.00 | 57 | 1007.7 |
| 20260505231502 | 68 | 214 | 4.0 | 11.0 | 0.00 | 0.00 | 0.00 | 56 | 1007.5 |
| 20260505231002 | 68 | 271 | 4.0 | 11.0 | 0.00 | 0.00 | 0.00 | 55 | 1007.4 |
| 20260505230004 | 68 | 280 | 3.0 | 8.0 | 0.00 | 0.00 | 0.00 | 56 | 1007.3 |
| 20260505225502 | 69 | 310 | 4.0 | 8.0 | 0.00 | 0.00 | 0.00 | 56 | 1007.3 |
| 20260505225001 | 69 | 313 | 3.0 | 8.0 | 0.00 | 0.00 | 0.00 | 56 | 1007.3 |
| 20260505224501 | 69 | 306 | 4.0 | 10.0 | 0.00 | 0.00 | 0.00 | 55 | 1006.9 |
| 20260505224004 | 69 | 228 | 4.0 | 10.0 | 0.00 | 0.00 | 0.00 | 57 | 1006.9 |
| 20260505223002 | 69 | 246 | 5.0 | 12.0 | 0.00 | 0.00 | 0.00 | 55 | 1006.8 |
| 20260505222503 | 69 | 229 | 4.0 | 12.0 | 0.00 | 0.00 | 0.00 | 55 | 1006.7 |
| 20260505222002 | 69 | 343 | 4.0 | 13.0 | 0.00 | 0.00 | 0.00 | 55 | 1006.6 |
| 20260505221003 | 70 | 251 | 6.0 | 14.0 | 0.00 | 0.00 | 0.00 | 53 | 1006.6 |
| 20260505220503 | 70 | 226 | 6.0 | 14.0 | 0.00 | 0.00 | 0.00 | 52 | 1006.5 |
| 20260505220001 | 71 | 162 | 6.0 | 14.0 | 0.00 | 0.00 | 0.00 | 52 | 1006.7 |
| 20260505215501 | 71 | 296 | 4.0 | 11.0 | 0.00 | 0.00 | 0.00 | 53 | 1006.7 |
| 20260505215002 | 71 | 242 | 3.0 | 13.0 | 0.00 | 0.00 | 0.00 | 52 | 1006.7 |
| 20260505214000 | 72 | 211 | 5.0 | 16.0 | 0.00 | 0.00 | 0.00 | 52 | 1006.9 |
| 20260505213502 | 72 | 219 | 6.0 | 16.0 | 0.00 | 0.00 | 0.00 | 51 | 1006.9 |
| 20260505212002 | 73 | 300 | 5.0 | 12.0 | 0.00 | 0.00 | 0.00 | 49 | 1006.8 |
| 20260505211500 | 73 | 205 | 7.0 | 11.0 | 0.00 | 0.00 | 0.00 | 49 | 1006.7 |
| 20260505211001 | 73 | 230 | 3.0 | 11.0 | 0.00 | 0.00 | 0.00 | 52 | 1006.8 |
| 20260505205501 | 73 | 243 | 4.0 | 10.0 | 0.00 | 0.00 | 0.00 | 49 | 1006.7 |
| 20260505205001 | 73 | 231 | 5.0 | 14.0 | 0.00 | 0.00 | 0.00 | 49 | 1006.8 |